Location: Newark
(44.2003°N, 3.2583°E)
Time: 12:03:16
(UTC+00:00)

N. Korean satellite - Visible Passes

Search period start: 28 November 2020 00:00
Search period end: 08 December 2020 00:00
Orbit: 452 x 504 km, 97.2° (Epoch: 28 November)

Date Brightness Start Highest point End Pass type
(mag) Time Alt. Az. Time Alt. Az. Time Alt. Az.
28 Nov 6.4 05:28:09 10° N 05:31:45 76° WNW 05:35:22 10° SSW visible
28 Nov 10.1 17:40:40 10° WSW 17:41:34 11° W 17:42:27 10° WNW visible
29 Nov 7.6 05:01:57 10° NNE 05:05:27 48° E 05:08:59 10° S visible
29 Nov 9.3 17:12:19 10° SSW 17:15:03 22° W 17:17:49 10° NW visible
30 Nov 9.1 04:36:07 10° NE 04:39:03 23° E 04:42:00 10° SSE visible
30 Nov 7.7 06:09:21 10° NNW 06:12:18 24° WNW 06:15:17 10° SW visible
30 Nov 7.6 16:45:19 10° S 16:48:37 48° W 16:51:59 10° NNW visible
01 Dec 10.1 04:11:14 10° ENE 04:12:33 12° E 04:13:50 10° ESE visible
01 Dec 6.7 05:42:37 10° N 05:46:08 49° WNW 05:49:40 10° SSW visible
02 Dec 6.7 05:16:14 10° NNE 05:19:52 76° ESE 05:23:31 10° S visible
02 Dec 9.7 17:27:26 10° SW 17:29:31 15° W 17:31:36 10° NW visible
03 Dec 8.3 04:50:08 10° NNE 04:53:29 34° E 04:56:51 10° SSE visible
03 Dec 8.1 06:24:09 10° NNW 06:26:34 17° WNW 06:29:00 10° WSW visible
03 Dec 8.6 16:59:56 10° SSW 17:03:00 31° W 17:06:08 10° NNW visible
04 Dec 9.5 04:24:32 10° NE 04:27:01 17° E 04:29:30 10° SE visible
04 Dec 7.3 05:57:08 10° N 06:00:26 33° WNW 06:03:44 10° SW visible
05 Dec 6.5 05:30:32 10° N 05:34:10 70° WNW 05:37:50 10° SSW visible
05 Dec 10.3 17:43:35 10° W 17:43:55 10° W 17:44:17 10° W visible
06 Dec 7.4 05:04:14 10° NNE 05:07:50 52° E 05:11:26 10° S visible
06 Dec 9.4 17:14:40 10° SW 17:17:20 21° W 17:20:04 10° NW visible
07 Dec 8.9 04:38:18 10° NE 04:41:23 25° E 04:44:28 10° SSE visible
07 Dec 7.8 06:11:40 10° NNW 06:14:36 23° WNW 06:17:33 10° WSW visible
07 Dec 7.8 16:47:32 10° S 16:50:51 45° W 16:54:14 10° NNW visible
